星链-11688 (STARLINK-11688)

导读 | 豆包AI

STARLINK-11688是美国于2025年4月29日发射的Starlink卫星,归属SpaceX星链星座。星链项目旨在构建全球卫星互联网星座,为全球提供高速低延迟互联网服务,尤其覆盖偏远地区。作为后续组网卫星,它接替或补充星座容量,增强全球覆盖能力,推动太空互联网基础设施建设。

基本信息
目录编号:
63756
目录名称:
STARLINK-11688
国际标识:
2025-089F
轨道中心:
EARTH
卫星名称:
星链-11688
卫星全名:
星链-11688 (STARLINK-11688)
卫星状态:
在轨 (已飞行368 天)
发射日期:
2025-04-29 UTC
国别 :
美国 (US)
星等 :
--
轨道信息
数据来源 国际轨道数据
星历时间: 2026-05-02T07:05:02+0800
11小时前
查看轨道信息
半长轴: 6734.642km
偏心率: 0.0002228
轨道倾角: 43.001°
近地点辐角 259.351°
升交点赤经 331.154°
平近点角 100.711°
近地点: 355.004km
远地点: 358.006km
周期: 91.671分钟
每日圈数: 15.708366
详细信息
固有亮度:
5
最大亮度:
2.5
卫星平台:
Starlink V1.0
覆盖范围:
全球
运营商:
太空探索技术公司
运营商所在国:
美国
制造商(研发单位):
太空探索技术公司
制造商所在国:
美国
使用方式:
暂无
卫星简介
Starlink 计划是 SpaceX 推出的全球卫星互联网项目,通过发射低轨道卫星,为全球尤其是偏远地区提供高速、低延迟的互联网服务。自 2019 年起,Starlink 已部署数千颗卫星,旨在缩小全球数字鸿沟,推动互联网普及。该项目还为军事、航空等行业提供通信支持,带来广泛经济效益。
2D轨道图
3D轨道图
轨道高度分析图
轨道倾角分析图
轨道综合分析图
查看轨道综合分析图